Tracking 20721 objects as of 1-Jun-2020
HD Live streaming from Space Station
objects crossing your sky now

IRIDIUM 33 DEB

Track IRIDIUM 33 DEB now!
10-day predictions


NORAD ID: 38244
Int'l Code: 1997-051ZU
Perigee: 590.5 km
Apogee: 599.0 km
Inclination: 86.4 °
Period: 96.4 minutes
Semi major axis: 6965 km
RCS: 0.0063 m2 (small)
Launch date: September 14, 1997
Source: United States (US)
Launch site: TYURATAM MISSILE AND SPACE COMPLEX (TTMTR)

Note: This is SATELLITE DEBRIS
aabbcc
Your satellite tracking list
Your tracking list is empty




NASA's NSSDC Master Catalog

Two Line Element Set (TLE):
1 38244U 97051ZU  20151.22726931 +.00004481 +00000-0 +42502-3 0  9997
2 38244 086.4227 143.1749 0006112 321.2603 038.8186 14.93327305552708
Source of the keplerian elements: AFSPC